Torna al catalogo

NOAA 16 DEB

AttivoPO
NORAD 41231·DEBRIS·🇺🇸 United States

Lanciato Sep 21, 2000 da Vandenberg Space Force Base

Loading…

Prossimi Passaggi (prossime 24 ore)

TLE

AggiornatoSource: Space-Track

Epoca: Sep 13, 2026, 04:32 UTC

1 41231U 00055EL  26256.18895133  .00006679  00000-0  11596-2 0  9992
2 41231  98.9284 158.8641 0036989  61.3177 299.1736 14.68120410563273

Traccia NOAA 16 DEB in tempo reale con AllMySat

Download on the App Store